OBJECT BQ (43820 NORAD) Tracking and Keplerian Element Data

This shows tracking and keplerian element data for the satellite.

Feedback or suggestion? Click here.




ElementValue
Catalog43820
NameOBJECT BQ
Epoch Orbit1031
Epoch Day45.82563994
Epoch Year2019
RAAN119.2276
Inclination97.7537
Eccentricity0.0013104
Argument of Perigee20.7565
Mean Anonmoly339.4185
Mean Motion14.95316033
Decay Rate2.91E-06
L11 43820U 18099BQ 19045.82563994 .00000291 00000-0 31659-4 0 9999
L22 43820 97.7537 119.2276 0013104 20.7565 339.4185 14.95316033 10312

Live tracking and technical data element details for OBJECT BQ (NORAD 43820). OBJECT BQ can be tracked NOW for your location showing map with azimuth and elevation plus other details from your city location.

Track the satellite on the map from your city or location and see movement details for azimuth, elevation, latitude, longitude, range, height, and movement on the map or in text.







IsCatalogInMostPopularTable: catalog: 43820, numindb: 60
Update: records affected: 1



GetName: 43820 OBJECT BQ

Hit Count: updated at: Thu, 23 May 2019 15:46:42 GMT